     13  23 44.58  +53 19.9  0.466  0.779  114.8/308   48.8   3.8  325/25.0  +25

.7  221.4

     14  23 34.15  +54 28.4  0.459  0.795  116.8/305   50.6   3.8  321/25.2  +27

.9  221.1

     15  23 22.92  +55 34.0  0.452  0.812  118.7/303   52.5   3.9  317/25.4  +30

.1  220.7

     16  23 10.84  +56 36.2  0.446  0.828  120.6/300   54.4   3.9  313/25.6  +32

.3  220.3

     17  22 57.87  +57 34.3  0.440  0.845  122.6/297   56.5   4.0  309/25.7  +34

.6  219.9

     18  22 43.98  +58 27.8  0.434  0.861  124.4/294   58.5   4.0  305/25.7  +36

.9  219.3

     19  22 29.18  +59 15.8  0.429  0.878  126.3/291   60.7   4.1  300/25.7  +39

.2  218.7

     20  22 13.47  +59 57.6  0.424  0.895  128.1/288   62.9   4.2  296/25.6  +41

.5  217.9

     21  21 56.91  +60 32.4  0.420  0.912  129.7/284   65.1   4.2  291/25.5  +43

.8  217.1

     22  21 39.58  +60 59.5  0.416  0.929  131.3/280   67.4   4.3  286/25.3  +46

.2  216.1

     23  21 21.62  +61 18.1  0.413  0.946  132.8/276   69.7   4.3  281/25.0  +48

.5  214.9

     24  21 03.19  +61 27.7  0.411  0.962  134.0/272   72.1   4.4  276/24.7  +50

.9  213.6

     25  20 44.48  +61 27.8  0.408  0.979  135.1/268   74.5   4.5  271/24.4  +53

.2  212.0

     26  20 25.71  +61 18.2  0.407  0.996  136.0/264   76.9   4.5  265/24.0  +55

.5  210.2

     27  20 07.11  +60 58.9  0.405  1.013  136.7/260   79.3   4.6  260/23.5  +57

.8  208.0

     28  19 48.88  +60 30.0  0.405  1.030  137.2/256   81.8   4.7  255/23.0  +60

.0  205.5

     29  19 31.21  +59 51.9  0.404  1.047  137.4/252   84.3   4.7  251/22.5  +62

.1  202.5

     30  19 14.24  +59 05.2  0.405  1.064  137.3/248   86.7   4.8  246/21.9  +64

.2  199.0

May   1  18 58.10  +58 10.7  0.406  1.081  137.0/245   89.2   4.9  242/21.3  +66

.1  194.8

NAKANO

         **** Don't distribute anyone except personal use only ****

                (C) Copyright 2002 OAA/ComputingSection

write mail from CFAD0::NAKANO on 2002-03-24 21:15:47(JST).



◎C/1661 C1 = C/2002 C1の連結軌道と予報位置です



 この彗星は,現在,4等級前後で,長い尾が観測されています.光度は,

まだ,明るくなり,尾もさらにのびるでしょう.なお,前回のEMES(2月

21日)の連結軌道からのその後の観測にずれは認められません.連結軌道

は,良く決定されています.



    C/2002 C1 (Ikeya-Zhang) = C/1661 C1 (Hevelius) 

Epoch 1661 Feb. 2.0 TT = JDT 2327760.5  

T 1661 Jan. 28.94993 TT                                 Nakano

q   0.5129278            (2000.0)            P               Q

n   0.00257059     Peri.   35.06660     -0.55469371     -0.68679567

a  52.7773883      Node    93.40680     +0.61444378     -0.71875981

e   0.9902813      Incl.   28.06939     +0.56104699     +0.10814826

P 383.42



Epoch 2002 Mar. 27.0 TT = JDT 2452360.5  

T 2002 Mar. 18.98000 TT                                 Nakano

q   0.5070622            (2000.0)            P               Q

n   0.00269696     Peri.   34.66988     -0.54916109     -0.69067357

a  51.1155641      Node    93.36898     +0.61957123     -0.71431180

e   0.9900801      Incl.   28.12117     +0.56085077     +0.11282143

P 365.45

From 457 observations 1661-2002, weighting mean residual 0".66.



 19h JST R.A.(2000) Decl.    Delta   r      Mot./PA   Elong. Mag.   PA/Tail   At

 twilight

           h  m       。  ,                    ,     。    。    m1      。 。      h

。    A 。

Mar. 15  01 24.93  +14 59.2  0.888  0.514   73.7/  9   31.1   3.4   59/12.5  +13

.0   99.3

     16  01 25.69  +16 12.1  0.868  0.511   74.6/  6   30.9   3.3   57/12.9  +12

.8  100.9

     17  01 26.27  +17 26.3  0.848  0.508   75.4/  4   30.7   3.2   55/13.3  +12

.7  102.5

     18  01 26.65  +18 41.5  0.829  0.507   76.3/  2   30.6   3.1   53/13.7  +12

.5  104.2

     19  01 26.81  +19 57.8  0.809  0.507   77.3/359   30.5   3.1   50/14.1  +12

.2  105.9

     20  01 26.74  +21 15.1  0.790  0.508   78.2/357   30.4   3.0   48/14.6  +12

.0  107.7

     21  01 26.43  +22 33.2  0.771  0.510   79.2/354   30.3   3.0   45/15.0  +11

.7  109.5

     22  01 25.87  +23 52.0  0.753  0.514   80.3/352   30.3   3.0   43/15.4  +11

.4  111.3

     23  01 25.05  +25 11.5  0.735  0.518   81.4/350   30.3   3.0   40/15.8  +11

.1  113.1

     24  01 23.96  +26 31.6  0.717  0.524   82.6/347   30.3   3.0   37/16.2  +10

.7  115.0

     25  01 22.59  +27 52.1  0.700  0.530   83.8/345   30.4   3.0   34/16.6  +10

.3  117.0

     26  01 20.93  +29 13.0  0.683  0.537   85.0/343   30.6   3.0   31/17.0   +9

.9  118.9

     27  01 18.98  +30 34.1  0.667  0.546   86.4/341   30.8   3.0   28/17.4   +9

.5  120.9

     28  01 16.72  +31 55.5  0.652  0.555   87.7/338   31.2   3.0   24/17.8   +9

.1  122.9

     29  01 14.15  +33 17.0  0.636  0.565   89.1/336   31.5   3.0   21/18.3   +8

.6  125.0

     30  01 11.26  +34 38.5  0.622  0.575   90.5/334   32.0   3.1   17/18.7   +8

.2  127.1

     31  01 08.03  +36 00.0  0.608  0.587   92.0/332   32.6   3.1   14/19.2   +7

.7  129.2

Apr.  1  01 04.47  +37 21.4  0.594  0.599   93.5/331   33.2   3.1   10/19.6   +7

.2  131.3

      2  01 00.55  +38 42.6  0.581  0.611   95.0/329   34.0   3.2    7/20.1   +6

.8  133.5

      3  00 56.27  +40 03.6  0.568  0.624   96.6/327   34.8   3.2    3/20.6   +6

.4  135.7

      4  00 51.60  +41 24.3  0.556  0.638   98.2/325   35.7   3.3  359/21.1   +5

.9  138.0

      5  00 46.52  +42 44.6  0.544  0.651   99.8/324   36.7   3.3  356/21.5   +5

.5  140.2



 27h JST R.A.(2000) Decl.    Delta   r      Mot./PA   Elong. Mag.   PA/Tail   At

 twilight

           h  m       。  ,                    ,     。    。    m1      。 。      h

。    A 。

Apr.  1  01 03.20  +37 48.5  0.589  0.603   94.0/330   33.4   3.2    9/19.8   +1

.7  222.9

      2  00 59.17  +39 09.6  0.577  0.615   95.5/328   34.2   3.2    5/20.3   +3

.5  222.8

      3  00 54.75  +40 30.6  0.564  0.628   97.1/326   35.1   3.2    2/20.7   +5

.4  222.8

      4  00 49.95  +41 51.1  0.552  0.642   98.7/325   36.0   3.3  358/21.2   +7

.3  222.7

      5  00 44.74  +43 11.3  0.541  0.656  100.4/323   37.1   3.3  355/21.7   +9

.2  222.6

      6  00 39.08  +44 30.9  0.530  0.671  102.1/321   38.3   3.4  351/22.2  +11

.2  222.5

      7  00 32.97  +45 49.9  0.519  0.685  103.8/319   39.5   3.4  347/22.6  +13

.2  222.4

      8  00 26.36  +47 08.1  0.509  0.700  105.5/318   40.8   3.5  344/23.1  +15

.2  222.3

      9  00 19.23  +48 25.3  0.500  0.716  107.3/316   42.3   3.5  340/23.5  +17

.2  222.2

     10  00 11.52  +49 41.3  0.491  0.731  109.2/314   43.8   3.6  336/23.9  +19

.3  222.0

     11  00 03.21  +50 56.0  0.482  0.747  111.0/312   45.4   3.6  333/24.3  +21

.4  221.9

     12  23 54.24  +52 09.0  0.474  0.763  112.9/310   47.0   3.7  329/24.7  +23

.5  221.6

     13  23 44.57  +53 19.9  0.466  0.779  114.8/308   48.8   3.8  325/25.0  +25

.7  221.4

     14  23 34.14  +54 28.4  0.459  0.795  116.8/305   50.6   3.8  321/25.2  +27

.9  221.1

     15  23 22.90  +55 34.0  0.452  0.812  118.7/303   52.5   3.9  317/25.4  +30

.1  220.7

     16  23 10.82  +56 36.2  0.446  0.828  120.6/300   54.4   3.9  313/25.6  +32

.3  220.3

     17  22 57.85  +57 34.3  0.440  0.845  122.6/297   56.5   4.0  309/25.7  +34

.6  219.9

     18  22 43.97  +58 27.8  0.434  0.861  124.4/294   58.5   4.0  305/25.7  +36

.9  219.3

     19  22 29.16  +59 15.8  0.429  0.878  126.3/291   60.7   4.1  300/25.7  +39

.2  218.7

     20  22 13.45  +59 57.6  0.424  0.895  128.1/288   62.9   4.2  296/25.6  +41

.5  217.9

     21  21 56.89  +60 32.4  0.420  0.912  129.7/284   65.1   4.2  291/25.5  +43

.8  217.1

     22  21 39.57  +60 59.5  0.416  0.929  131.3/280   67.4   4.3  286/25.3  +46

.2  216.1

     23  21 21.61  +61 18.1  0.413  0.946  132.7/276   69.7   4.3  281/25.0  +48

.5  214.9

     24  21 03.17  +61 27.7  0.411  0.962  134.0/272   72.1   4.4  276/24.7  +50

.9  213.6

     25  20 44.47  +61 27.8  0.408  0.979  135.1/268   74.5   4.5  271/24.4  +53

.2  212.0

     26  20 25.70  +61 18.2  0.407  0.996  136.0/264   76.9   4.5  265/24.0  +55

.5  210.2

     27  20 07.10  +60 58.8  0.405  1.013  136.7/260   79.4   4.6  260/23.5  +57

.8  208.0

     28  19 48.87  +60 29.9  0.405  1.030  137.2/256   81.8   4.7  255/23.0  +60

.0  205.5

     29  19 31.20  +59 51.8  0.404  1.047  137.4/252   84.3   4.7  251/22.5  +62

.1  202.5

     30  19 14.24  +59 05.2  0.405  1.064  137.3/248   86.7   4.8  246/21.9  +64

.2  199.0

May   1  18 58.10  +58 10.6  0.406  1.081  137.0/245   89.2   4.9  242/21.3  +66

.1  194.8

NAKANO

         **** Don't distribute anyone except personal use only ****

                (C) Copyright 2002 OAA/ComputingSection

write mail from CFAD0::NAKANO on 2002-03-14 20:06:33(JST).

 

    C/2002 C1 (Ikeya-Zhang) 

T 2002 Mar. 18.97840 TT                                 Nakano

q   0.5070630            (2000.0)            P               Q

n   0.00268233     Peri.   34.66627     -0.54915868     -0.69068283

a  51.301272       Node    93.37176     +0.61959390     -0.71430049

e   0.9901160      Incl.   28.12056     +0.56082808     +0.11283628

P 367.44

From 304 observations 2002 Feb. 1-2002 Feb. 24.



NAKANO

         **** Don't distribute anyone except personal use only ****

                (C) Copyright 2002 OAA/ComputingSection

write mail from CFAD0::NAKANO on 2002-02-25 23:29:25(JST).

 



    C/2002 C1 (Ikeya-Zhang) = C/1661 C1 

Epoch 1661 Feb. 2.0 TT = JDT 2327760.5  

T 1661 Jan. 28.93194 TT                                 Nakano

q   0.5129230            (2000.0)            P               Q

n   0.00257059     Peri.   35.06482     -0.55470685     -0.68679046

a  52.777290       Node    93.40916     +0.61444657     -0.71876464

e   0.9902814      Incl.   28.06896     +0.56103095     +0.10814929

P 383.42



Epoch 2002 Mar. 27.0 TT = JDT 2452360.5  

T 2002 Mar. 18.97902 TT                                 Nakano

q   0.5070579            (2000.0)            P               Q

n   0.00269696     Peri.   34.66812     -0.54917442     -0.69066828

a  51.115597       Node    93.37134     +0.61957388     -0.71431678

e   0.9900802      Incl.   28.12074     +0.56083479     +0.11282229

P 365.45

